{"data":{"norad_id":53858,"epoch":"2026-05-25T04:00:03.998880Z","epoch_age_seconds":71197,"freshness":"FRESH","line1":"1 53858U 22114AS  26145.16671295  .00548965  00000+0  44394-2 0  9996","line2":"2 53858  53.2171 285.7839 0000925  43.4304 197.4786 15.68608055  5849","mean_motion":15.68608055,"eccentricity":9.25e-5,"inclination_deg":53.2171,"raan_deg":285.7839,"arg_perigee_deg":43.4304,"mean_anomaly_deg":197.4786,"bstar":0.0044394,"rev_number":584,"period_min":91.801135115298,"perigee_km":362.25839682852,"apogee_km":363.50548533262,"semimajor_km":6741.0189410806,"source":"CELESTRAK","updated_at":"2026-05-25T13:38:17.578150Z"}}